"Pseudo-MPEC" for P10N4v9

Created 2019 Apr 22 11:07:06 UT using Find_Orb

Click here for an explanation of pseudo-MPECs

 
 Astrometry: 
     P10N4v9  C2019 04 09b*tAi)(7LjaHb3_TAstrometryPBG5I2Xredacted;*:'%vAZtcIF51
     P10N4v9  C2019 04 09Xe+okP0mlclickf[Q@1MBPT2[Hn`xn'XBD[/hereAJUK4H=!)HunF51
     P10N4v9  C2019 04 09v=HLK5-Mfor)explanationmKwO]?sst]nD8?2:6gD^clZZ;a,PnF51

Station data:
(F51) Pan-STARRS 1, Haleakala  (N20.707235 W156.255910)  US/Hawaii.
   Observers N. Primak, A. Schultz, S. Watters, J. Thiel, T. Goggia. Measurer
   PS1 Science Consortium. 1.8-m Ritchey-Chrétien + CCD.

Orbital elements:  P10N4v9
   Perihelion 2020 Mar 3.220335 +/- 244 TT =  5:17:16 (JD 2458911.720335)
Epoch 2019 Apr 10.0 TT = JDT 2458583.5   Earth MOID: 0.4927   AutoNEOCP
M 234.21051531 +/- 80               (J2000 ecliptic)
n   0.38324707 +/- 0.245            Peri.  169.34177 +/- 90
a   1.87708301 +/- 0.802            Node   178.31599 +/- 48
e   0.2034401 +/- 0.271             Incl.   21.55770 +/- 29
P   2.57/939.32d           H 19.3   G  0.15   U 11.8  SR
q 1.49520894 +/- 0.866    Q 2.25895708 +/- 39.9
From 3 observations 2019 Apr. 9 (51.1 min); mean residual 0".10
Residuals in arcseconds: 
190409 F51  .11+  .07+    190409 F51  .17-  .10-    190409 F51  .06+  .03+    

Ephemerides (geocentric):
Date (UTC) HH   RA              Dec         delta   r     elong  mag " sig PA
---- -- -- --  -------------   -----------  ------ ------ -----  --- ---- ---
2019 04 22 11  13 56 39.262   +09 46 03.00  1.1562 2.1223 158.1 21.9 0.0  170
2019 04 22 12  13 56 36.656   +09 46 44.00  1.1562 2.1222 158.1 21.9 0.0  170
2019 04 22 13  13 56 34.050   +09 47 24.98  1.1562 2.1222 158.1 21.9 0.0  170
2019 04 22 14  13 56 31.443   +09 48 05.92  1.1563 2.1221 158.1 21.9 0.0  170
2019 04 22 15  13 56 28.837   +09 48 46.83  1.1563 2.1220 158.0 21.9 0.0  170
2019 04 22 16  13 56 26.230   +09 49 27.70  1.1563 2.1219 158.0 21.9 0.0  170
2019 04 22 17  13 56 23.624   +09 50 08.55  1.1563 2.1219 158.0 21.9 0.0  170
2019 04 22 18  13 56 21.017   +09 50 49.36  1.1563 2.1218 158.0 21.9 0.0  170
2019 04 22 19  13 56 18.410   +09 51 30.14  1.1563 2.1217 157.9 21.9 0.0  170
2019 04 22 20  13 56 15.804   +09 52 10.89  1.1563 2.1217 157.9 21.9 0.0  170
2019 04 22 21  13 56 13.197   +09 52 51.60  1.1564 2.1216 157.9 21.9 0.0  170
2019 04 22 22  13 56 10.590   +09 53 32.28  1.1564 2.1215 157.8 21.9 0.0  170
2019 04 22 23  13 56 07.983   +09 54 12.93  1.1564 2.1214 157.8 21.9 0.0  170
2019 04 23 00  13 56 05.376   +09 54 53.55  1.1564 2.1214 157.8 21.9 0.0  170
2019 04 23 01  13 56 02.769   +09 55 34.13  1.1564 2.1213 157.8 21.9 0.0  170
2019 04 23 02  13 56 00.162   +09 56 14.68  1.1564 2.1212 157.7 21.9 0.0  170
2019 04 23 03  13 55 57.555   +09 56 55.20  1.1565 2.1211 157.7 21.9 0.0  170
2019 04 23 04  13 55 54.948   +09 57 35.69  1.1565 2.1211 157.7 21.9 0.0  170
2019 04 23 05  13 55 52.341   +09 58 16.14  1.1565 2.1210 157.6 21.9 0.0  170
2019 04 23 06  13 55 49.734   +09 58 56.56  1.1565 2.1209 157.6 21.9 0.0  170
2019 04 23 07  13 55 47.127   +09 59 36.94  1.1565 2.1209 157.6 21.9 0.0  170
2019 04 23 08  13 55 44.520   +10 00 17.30  1.1565 2.1208 157.6 21.9 0.0  170
2019 04 23 09  13 55 41.913   +10 00 57.62  1.1566 2.1207 157.5 21.9 0.0  170
2019 04 23 10  13 55 39.306   +10 01 37.90  1.1566 2.1206 157.5 21.9 0.0  170
2019 04 23 11  13 55 36.699   +10 02 18.16  1.1566 2.1206 157.5 21.9 0.0  170
2019 04 23 12  13 55 34.092   +10 02 58.37  1.1566 2.1205 157.4 21.9 0.0  170
2019 04 23 13  13 55 31.485   +10 03 38.56  1.1567 2.1204 157.4 21.9 0.0  170
2019 04 23 14  13 55 28.878   +10 04 18.71  1.1567 2.1203 157.4 21.9 0.0  169
2019 04 23 15  13 55 26.272   +10 04 58.83  1.1567 2.1203 157.4 21.9 0.0  169
2019 04 23 16  13 55 23.665   +10 05 38.91  1.1567 2.1202 157.3 21.9 0.0  169
2019 04 23 17  13 55 21.058   +10 06 18.97  1.1567 2.1201 157.3 21.9 0.0  169
2019 04 23 18  13 55 18.452   +10 06 58.98  1.1568 2.1201 157.3 21.9 0.0  169
2019 04 23 19  13 55 15.846   +10 07 38.97  1.1568 2.1200 157.2 21.9 0.0  169
2019 04 23 20  13 55 13.239   +10 08 18.91  1.1568 2.1199 157.2 21.9 0.0  169
2019 04 23 21  13 55 10.633   +10 08 58.83  1.1568 2.1198 157.2 21.9 0.0  169
2019 04 23 22  13 55 08.027   +10 09 38.71  1.1569 2.1198 157.2 21.9 0.0  169
2019 04 23 23  13 55 05.421   +10 10 18.56  1.1569 2.1197 157.1 21.9 0.0  169
2019 04 24 00  13 55 02.815   +10 10 58.37  1.1569 2.1196 157.1 21.9 0.0  169
2019 04 24 01  13 55 00.210   +10 11 38.15  1.1570 2.1195 157.1 21.9 0.0  169
2019 04 24 02  13 54 57.604   +10 12 17.89  1.1570 2.1195 157.0 21.9 0.0  169
2019 04 24 03  13 54 54.999   +10 12 57.60  1.1570 2.1194 157.0 21.9 0.0  169
2019 04 24 04  13 54 52.393   +10 13 37.28  1.1570 2.1193 157.0 21.9 0.0  169
2019 04 24 05  13 54 49.788   +10 14 16.92  1.1571 2.1193 156.9 21.9 0.0  169
2019 04 24 06  13 54 47.183   +10 14 56.52  1.1571 2.1192 156.9 21.9 0.0  169
2019 04 24 07  13 54 44.578   +10 15 36.09  1.1571 2.1191 156.9 21.9 0.0  169
2019 04 24 08  13 54 41.974   +10 16 15.63  1.1572 2.1190 156.9 22.0 0.0  169
2019 04 24 09  13 54 39.369   +10 16 55.13  1.1572 2.1190 156.8 22.0 0.0  169
2019 04 24 10  13 54 36.765   +10 17 34.60  1.1572 2.1189 156.8 22.0 0.0  169